When you browse on this site, cookies collect data to enhance your experience and personalize the content and advertising you see.
Visit our Privacy Policy to learn more. By continuing to use the site, you agree to this use of cookies and data.
  • în România
  • Lista ţărilor
  • Pe 7 zile
  • Temperatura apei
  • Hartă satelitară
  • Meteo pe hartă
  • Widget-uri
  • user-avatar
    Intrare

    Meteo pe oră la Prinston

    Astăzi, 19 Iulie, Vineri

    Timp Temperatura Precipitaţii Vânt Presiune Umiditate
    00:00 +25°C° 0 mm 2 m/s 754 mmHg 91%
    01:00 +25°C° 0 mm 2 m/s 754 mmHg 92%
    02:00 +25°C° 0 mm 2 m/s 754 mmHg 92%
    03:00 +25°C° 0 mm 1 m/s 754 mmHg 92%
    04:00 +24°C° 0 mm 1 m/s 754 mmHg 92%
    05:00 +25°C° 0 mm 1 m/s 755 mmHg 90%
    06:00 +26°C° 0 mm 1 m/s 755 mmHg 87%
    07:00 +26°C° 0 mm 1 m/s 755 mmHg 85%
    08:00 +28°C° 0 mm 1 m/s 755 mmHg 78%
    09:00 +30°C° 0 mm 1 m/s 755 mmHg 71%
    10:00 +32°C° 0 mm 1 m/s 755 mmHg 65%
    11:00 +34°C° 0 mm 2 m/s 755 mmHg 60%
    12:00 +35°C° 0 mm 2 m/s 755 mmHg 56%
    13:00 +36°C° 0 mm 2 m/s 754 mmHg 52%
    14:00 +37°C° 0 mm 3 m/s 754 mmHg 51%
    15:00 +37°C° 0 mm 3 m/s 754 mmHg 51%
    16:00 +37°C° 0 mm 3 m/s 753 mmHg 51%
    17:00 +36°C° 0 mm 3 m/s 753 mmHg 56%
    18:00 +35°C° 0 mm 3 m/s 754 mmHg 61%
    19:00 +33°C° 0 mm 3 m/s 754 mmHg 66%
    20:00 +31°C° 1.4 mm 3 m/s 754 mmHg 69%
    21:00 +30°C° 1.4 mm 2 m/s 754 mmHg 71%
    22:00 +30°C° 1.4 mm 2 m/s 754 mmHg 74%
    23:00 +29°C° 1.9 mm 2 m/s 754 mmHg 76%

    Mâine, 20 Iulie, Sâmbătă

    Timp Temperatura Precipitaţii Vânt Presiune Umiditate
    00:00 +29°C° 1.9 mm 2 m/s 754 mmHg 78%
    01:00 +28°C° 1.9 mm 2 m/s 754 mmHg 80%
    02:00 +28°C° 0 mm 2 m/s 754 mmHg 80%
    03:00 +28°C° 0 mm 2 m/s 754 mmHg 81%
    04:00 +28°C° 0 mm 2 m/s 753 mmHg 81%
    05:00 +28°C° 0 mm 2 m/s 754 mmHg 81%
    06:00 +29°C° 0 mm 2 m/s 754 mmHg 81%
    07:00 +29°C° 0 mm 1 m/s 754 mmHg 81%
    08:00 +31°C° 0 mm 2 m/s 754 mmHg 74%
    09:00 +34°C° 0 mm 2 m/s 754 mmHg 68%
    10:00 +36°C° 0 mm 3 m/s 754 mmHg 61%
    11:00 +37°C° 0.1 mm 3 m/s 754 mmHg 58%
    12:00 +37°C° 0.1 mm 4 m/s 754 mmHg 56%
    13:00 +38°C° 0.1 mm 4 m/s 753 mmHg 53%
    14:00 +38°C° 0 mm 4 m/s 753 mmHg 55%
    15:00 +37°C° 0 mm 4 m/s 753 mmHg 57%
    16:00 +37°C° 0 mm 4 m/s 752 mmHg 60%
    17:00 +36°C° 0 mm 4 m/s 752 mmHg 62%
    18:00 +35°C° 0 mm 3 m/s 753 mmHg 65%
    19:00 +35°C° 0 mm 3 m/s 753 mmHg 68%
    20:00 +34°C° 0 mm 3 m/s 753 mmHg 69%
    21:00 +34°C° 0 mm 3 m/s 753 mmHg 71%
    22:00 +33°C° 0 mm 3 m/s 753 mmHg 73%
    23:00 +32°C° 0 mm 2 m/s 753 mmHg 71%

    Poimâine, 21 Iulie, Duminică

    Timp Temperatura Precipitaţii Vânt Presiune Umiditate
    00:00 +31°C° 0 mm 2 m/s 753 mmHg 69%
    01:00 +31°C° 0 mm 2 m/s 752 mmHg 67%
    02:00 +30°C° 0 mm 2 m/s 752 mmHg 67%
    03:00 +30°C° 0 mm 2 m/s 753 mmHg 68%
    04:00 +29°C° 0 mm 2 m/s 753 mmHg 69%
    05:00 +30°C° 0 mm 2 m/s 753 mmHg 69%
    06:00 +30°C° 0 mm 2 m/s 753 mmHg 70%
    07:00 +31°C° 0 mm 2 m/s 753 mmHg 70%
    08:00 +32°C° 0 mm 2 m/s 753 mmHg 66%
    09:00 +35°C° 0 mm 3 m/s 753 mmHg 62%
    10:00 +37°C° 0 mm 3 m/s 753 mmHg 58%
    11:00 +38°C° 0 mm 3 m/s 752 mmHg 53%
    12:00 +40°C° 0 mm 4 m/s 752 mmHg 48%
    13:00 +41°C° 0 mm 4 m/s 752 mmHg 44%
    14:00 +40°C° 0 mm 4 m/s 752 mmHg 46%
    15:00 +40°C° 0 mm 4 m/s 751 mmHg 49%
    16:00 +38°C° 0 mm 4 m/s 751 mmHg 51%
    17:00 +37°C° 0 mm 3 m/s 751 mmHg 55%
    18:00 +35°C° 0 mm 3 m/s 751 mmHg 59%
    19:00 +34°C° 0 mm 3 m/s 751 mmHg 63%
    20:00 +31°C° 1.3 mm 3 m/s 752 mmHg 69%
    21:00 +29°C° 1.3 mm 4 m/s 752 mmHg 75%
    22:00 +28°C° 1.3 mm 5 m/s 752 mmHg 81%
    23:00 +27°C° 0.9 mm 4 m/s 752 mmHg 82%

    22 Iulie, Luni

    Timp Temperatura Precipitaţii Vânt Presiune Umiditate
    00:00 +27°C° 0.9 mm 3 m/s 751 mmHg 83%
    01:00 +27°C° 0.9 mm 1 m/s 751 mmHg 84%
    02:00 +27°C° 0.1 mm 2 m/s 751 mmHg 84%
    03:00 +27°C° 0.1 mm 2 m/s 752 mmHg 83%
    04:00 +26°C° 0.1 mm 2 m/s 752 mmHg 83%
    05:00 +26°C° 0.1 mm 2 m/s 752 mmHg 80%
    06:00 +25°C° 0.1 mm 2 m/s 752 mmHg 77%
    07:00 +25°C° 0.1 mm 2 m/s 753 mmHg 75%
    08:00 +25°C° 0.1 mm 2 m/s 753 mmHg 72%
    09:00 +26°C° 0.1 mm 2 m/s 753 mmHg 70%
    10:00 +27°C° 0.1 mm 2 m/s 753 mmHg 67%
    11:00 +26°C° 0.9 mm 2 m/s 753 mmHg 72%
    12:00 +25°C° 0.9 mm 2 m/s 753 mmHg 77%
    13:00 +24°C° 0.9 mm 1 m/s 753 mmHg 82%
    14:00 +24°C° 0.1 mm 1 m/s 753 mmHg 80%
    15:00 +25°C° 0.1 mm 1 m/s 753 mmHg 78%
    16:00 +25°C° 0.1 mm 1 m/s 753 mmHg 75%
    17:00 +25°C° 0 mm 1 m/s 753 mmHg 76%
    18:00 +25°C° 0 mm 1 m/s 753 mmHg 77%
    19:00 +25°C° 0 mm 1 m/s 753 mmHg 78%
    20:00 +25°C° 0.1 mm 2 m/s 754 mmHg 77%
    21:00 +24°C° 0.1 mm 2 m/s 754 mmHg 75%
    22:00 +24°C° 0.1 mm 2 m/s 754 mmHg 74%
    23:00 +22°C° 0 mm 3 m/s 754 mmHg 67%

    23 Iulie, Marţi

    Timp Temperatura Precipitaţii Vânt Presiune Umiditate
    00:00 +22°C° 0 mm 3 m/s 754 mmHg 59%
    01:00 +21°C° 0 mm 3 m/s 754 mmHg 52%
    02:00 +20°C° 0 mm 3 m/s 755 mmHg 55%
    03:00 +19°C° 0 mm 3 m/s 755 mmHg 57%
    04:00 +19°C° 0 mm 3 m/s 755 mmHg 60%
    05:00 +19°C° 0 mm 3 m/s 755 mmHg 62%
    06:00 +20°C° 0 mm 3 m/s 755 mmHg 63%
    07:00 +21°C° 0 mm 3 m/s 756 mmHg 65%
    08:00 +22°C° 0 mm 3 m/s 756 mmHg 60%
    09:00 +25°C° 0 mm 3 m/s 756 mmHg 55%
    10:00 +27°C° 0 mm 2 m/s 756 mmHg 50%
    11:00 +28°C° 0 mm 3 m/s 756 mmHg 47%
    12:00 +28°C° 0 mm 3 m/s 756 mmHg 45%
    13:00 +29°C° 0 mm 3 m/s 756 mmHg 42%
    14:00 +29°C° 0 mm 3 m/s 756 mmHg 44%
    15:00 +29°C° 0 mm 3 m/s 756 mmHg 45%
    16:00 +29°C° 0 mm 3 m/s 756 mmHg 47%
    17:00 +28°C° 0 mm 3 m/s 757 mmHg 49%
    18:00 +26°C° 0 mm 3 m/s 757 mmHg 51%
    19:00 +25°C° 0 mm 3 m/s 757 mmHg 54%
    20:00 +24°C° 0 mm 3 m/s 758 mmHg 53%
    21:00 +22°C° 0 mm 3 m/s 758 mmHg 53%
    22:00 +22°C° 0 mm 3 m/s 759 mmHg 53%
    23:00 +21°C° 0 mm 3 m/s 759 mmHg 53%

    24 Iulie, Miercuri

    Timp Temperatura Precipitaţii Vânt Presiune Umiditate
    00:00 +20°C° 0 mm 3 m/s 759 mmHg 54%
    01:00 +19°C° 0 mm 2 m/s 759 mmHg 55%
    02:00 +19°C° 0 mm 2 m/s 759 mmHg 56%
    03:00 +18°C° 0 mm 2 m/s 759 mmHg 58%
    04:00 +18°C° 0 mm 2 m/s 760 mmHg 59%
    05:00 +19°C° 0 mm 2 m/s 760 mmHg 60%
    06:00 +19°C° 0 mm 2 m/s 761 mmHg 60%
    07:00 +20°C° 0 mm 2 m/s 761 mmHg 61%
    08:00 +23°C° 0 mm 2 m/s 761 mmHg 55%
    09:00 +24°C° 0 mm 2 m/s 761 mmHg 50%
    10:00 +26°C° 0 mm 2 m/s 762 mmHg 44%
    11:00 +27°C° 0 mm 1 m/s 762 mmHg 41%
    12:00 +28°C° 0 mm 1 m/s 761 mmHg 39%
    13:00 +29°C° 0 mm 1 m/s 761 mmHg 36%
    14:00 +29°C° 0 mm 1 m/s 761 mmHg 37%
    15:00 +29°C° 0 mm 1 m/s 761 mmHg 37%
    16:00 +29°C° 0 mm 1 m/s 761 mmHg 38%
    17:00 +27°C° 0 mm 2 m/s 761 mmHg 44%
    18:00 +26°C° 0 mm 2 m/s 761 mmHg 49%
    19:00 +24°C° 0 mm 2 m/s 761 mmHg 55%
    20:00 +23°C° 0 mm 2 m/s 762 mmHg 59%
    21:00 +21°C° 0 mm 2 m/s 762 mmHg 63%
    22:00 +21°C° 0 mm 2 m/s 762 mmHg 67%
    23:00 +20°C° 0 mm 2 m/s 763 mmHg 70%
    Arată mai mult